| time (UTC) | temp F | wind direction | speed knots | gust knots | rain 1hr in | rain 24hr in | rain mn in | humidity % | barometer mb |
| 20260506205004 | 53 | 312 | 1.7 | 7.0 | 0.00 | 0.04 | 0.04 | 85 | 999.2 |
| 20260506204503 | 54 | 340 | 1.7 | 3.5 | 0.00 | 0.04 | 0.04 | 85 | 999.3 |
| 20260506204004 | 54 | 312 | 1.7 | 6.1 | 0.00 | 0.04 | 0.04 | 85 | 999.3 |
| 20260506203505 | 54 | 304 | 1.7 | 6.1 | 0.00 | 0.04 | 0.04 | 85 | 999.1 |
| 20260506203004 | 54 | 324 | 4.3 | 6.1 | 0.00 | 0.04 | 0.04 | 85 | 999.0 |
| 20260506202504 | 54 | 18 | 1.7 | 5.2 | 0.00 | 0.04 | 0.04 | 85 | 998.9 |
| 20260506202004 | 54 | 1 | 3.5 | 6.1 | 0.00 | 0.04 | 0.04 | 82 | 998.9 |
| 20260506201504 | 55 | 18 | 1.7 | 6.1 | 0.00 | 0.05 | 0.04 | 81 | 999.0 |
| 20260506200503 | 56 | 67 | 2.6 | 7.8 | 0.00 | 0.05 | 0.04 | 81 | 999.1 |
| 20260506200004 | 56 | 18 | 2.6 | 7.8 | 0.00 | 0.06 | 0.04 | 81 | 999.1 |
| 20260506195504 | 56 | 13 | 3.5 | 7.8 | 0.00 | 0.06 | 0.04 | 80 | 998.8 |
| 20260506194504 | 58 | 313 | 1.7 | 3.5 | 0.00 | 0.06 | 0.04 | 76 | 998.4 |
| 20260506194003 | 58 | 188 | 0.9 | 1.7 | 0.00 | 0.07 | 0.04 | 75 | 998.5 |
| 20260506193503 | 58 | 187 | 0.9 | 1.7 | 0.00 | 0.08 | 0.04 | 74 | 998.3 |
| 20260506193004 | 58 | 178 | 0.9 | 3.5 | 0.00 | 0.08 | 0.04 | 74 | 998.3 |
| 20260506192504 | 58 | 162 | 0.9 | 3.5 | 0.00 | 0.08 | 0.04 | 73 | 997.9 |
| 20260506191504 | 58 | 210 | 0.9 | 2.6 | 0.00 | 0.09 | 0.04 | 73 | 997.8 |
| 20260506191004 | 59 | 230 | 1.7 | 3.5 | 0.00 | 0.11 | 0.04 | 73 | 997.9 |
| 20260506190503 | 59 | 250 | 0.9 | 3.5 | 0.00 | 0.11 | 0.04 | 72 | 997.9 |
| 20260506190005 | 59 | 228 | 1.7 | 3.5 | 0.00 | 0.11 | 0.04 | 72 | 998.0 |
| 20260506185504 | 59 | 198 | 2.6 | 3.5 | 0.00 | 0.12 | 0.04 | 72 | 997.7 |
| 20260506185003 | 59 | 174 | 0.9 | 2.6 | 0.00 | 0.12 | 0.04 | 72 | 998.0 |
| 20260506184504 | 59 | 249 | 1.7 | 3.5 | 0.00 | 0.13 | 0.04 | 72 | 997.9 |
| 20260506184004 | 59 | 211 | 0.9 | 3.5 | 0.00 | 0.13 | 0.04 | 71 | 997.9 |
| 20260506183504 | 60 | 187 | 1.7 | 3.5 | 0.00 | 0.13 | 0.04 | 71 | 997.7 |
| 20260506183004 | 60 | 251 | 1.7 | 4.3 | 0.00 | 0.14 | 0.04 | 71 | 997.5 |
| 20260506182503 | 60 | 251 | 0.9 | 4.3 | 0.00 | 0.14 | 0.04 | 70 | 997.5 |
| 20260506181504 | 60 | 169 | 1.7 | 2.6 | 0.00 | 0.15 | 0.04 | 70 | 997.5 |
| 20260506181004 | 60 | 138 | 1.7 | 2.6 | 0.00 | 0.17 | 0.04 | 70 | 997.5 |
| 20260506180504 | 61 | 153 | 1.7 | 3.5 | 0.00 | 0.17 | 0.04 | 69 | 997.6 |
| 20260506180005 | 61 | 197 | 1.7 | 3.5 | 0.00 | 0.19 | 0.04 | 69 | 997.7 |
| 20260506175504 | 61 | 205 | 0.9 | 3.5 | 0.00 | 0.19 | 0.04 | 69 | 997.2 |
| 20260506175004 | 61 | 226 | 1.7 | 5.2 | 0.00 | 0.20 | 0.04 | 68 | 997.3 |
| 20260506174503 | 61 | 245 | 1.7 | 5.2 | 0.00 | 0.20 | 0.04 | 68 | 997.2 |
| 20260506174004 | 62 | 241 | 1.7 | 4.3 | 0.00 | 0.21 | 0.04 | 67 | 997.3 |
| 20260506173503 | 62 | 239 | 2.6 | 4.3 | 0.00 | 0.22 | 0.04 | 67 | 997.1 |
| 20260506172504 | 62 | 194 | 1.7 | 4.3 | 0.00 | 1.22 | 0.16 | 66 | 997.1 |
| 20260506172003 | 62 | 155 | 1.7 | 3.5 | 0.00 | 1.33 | 0.16 | 66 | 996.9 |
| 20260506171504 | 63 | 214 | 1.7 | 7.0 | 0.00 | 1.38 | 0.16 | 65 | 996.9 |
| 20260506170504 | 63 | 266 | 1.7 | 5.2 | 0.00 | 1.49 | 0.16 | 63 | 996.8 |
| 20260506170004 | 64 | 251 | 2.6 | 6.1 | 0.00 | 1.49 | 0.16 | 59 | 996.7 |
| 20260506165504 | 64 | 243 | 1.7 | 7.0 | 0.00 | 1.54 | 0.16 | 57 | 996.6 |
| 20260506165003 | 65 | 214 | 1.7 | 7.0 | 0.00 | 1.54 | 0.16 | 56 | 996.6 |
| 20260506164004 | 66 | 234 | 3.5 | 7.0 | 0.00 | 1.59 | 0.16 | 54 | 996.6 |
| 20260506163504 | 67 | 219 | 1.7 | 7.0 | 0.00 | 1.65 | 0.16 | 53 | 996.4 |
| 20260506163004 | 67 | 187 | 4.3 | 7.0 | 0.00 | 1.65 | 0.16 | 52 | 996.4 |
| 20260506162504 | 68 | 221 | 1.7 | 6.1 | 0.00 | 1.65 | 0.16 | 51 | 996.6 |
| 20260506162003 | 67 | 222 | 2.6 | 6.1 | 0.00 | 1.65 | 0.16 | 52 | 996.4 |
| 20260506161504 | 68 | 231 | 1.7 | 6.1 | 0.00 | 1.65 | 0.16 | 51 | 996.4 |
| 20260506161003 | 69 | 245 | 4.3 | 6.1 | 0.00 | 1.65 | 0.16 | 50 | 996.4 |
| 20260506160005 | 70 | 204 | 2.6 | 5.2 | 0.00 | 1.65 | 0.16 | 50 | 996.6 |
| 20260506155504 | 70 | 242 | 1.7 | 3.5 | 0.00 | 1.65 | 0.16 | 49 | 996.5 |
| 20260506155004 | 70 | 259 | 2.6 | 4.3 | 0.00 | 1.65 | 0.16 | 50 | 996.4 |
| 20260506153504 | 71 | 185 | 3.5 | 7.0 | 0.00 | 1.65 | 0.16 | 49 | 996.4 |
| 20260506153004 | 70 | 164 | 1.7 | 7.0 | 0.00 | 1.65 | 0.16 | 50 | 996.5 |
| 20260506152504 | 68 | 171 | 3.5 | 7.0 | 0.00 | 1.65 | 0.16 | 49 | 996.5 |
| 20260506152004 | 69 | 197 | 2.6 | 5.2 | 0.00 | 1.65 | 0.16 | 47 | 996.4 |
| 20260506151504 | 69 | 204 | 1.7 | 4.3 | 0.00 | 1.65 | 0.16 | 50 | 996.5 |
| 20260506151004 | 68 | 204 | 1.7 | 4.3 | 0.00 | 1.65 | 0.16 | 50 | 996.4 |
| 20260506150504 | 67 | 177 | 2.6 | 7.0 | 0.00 | 1.65 | 0.16 | 49 | 996.5 |
| 20260506150004 | 68 | 198 | 1.7 | 7.0 | 0.00 | 1.65 | 0.16 | 47 | 996.4 |
| 20260506145504 | 69 | 222 | 1.7 | 7.0 | 0.00 | 1.65 | 0.16 | 44 | 996.6 |
| 20260506145004 | 71 | 158 | 2.6 | 5.2 | 0.00 | 1.65 | 0.16 | 44 | 996.6 |
| 20260506144504 | 71 | 154 | 1.7 | 7.0 | 0.00 | 1.65 | 0.16 | 48 | 996.4 |
| 20260506144003 | 70 | 174 | 1.7 | 7.0 | 0.00 | 1.65 | 0.16 | 50 | 996.8 |
| 20260506143504 | 69 | 181 | 5.2 | 7.0 | 0.00 | 1.65 | 0.16 | 50 | 996.7 |
| 20260506143003 | 68 | 217 | 2.6 | 7.0 | 0.00 | 1.65 | 0.16 | 51 | 996.7 |
| 20260506142503 | 67 | 228 | 1.7 | 7.0 | 0.00 | 1.65 | 0.16 | 52 | 996.7 |
| 20260506142003 | 67 | 229 | 1.7 | 5.2 | 0.00 | 1.65 | 0.16 | 52 | 996.8 |
| 20260506141504 | 68 | 206 | 4.3 | 7.0 | 0.00 | 1.65 | 0.16 | 53 | 996.8 |
| 20260506141004 | 67 | 178 | 1.7 | 7.0 | 0.00 | 1.65 | 0.16 | 54 | 996.6 |
| 20260506140504 | 67 | 179 | 2.6 | 5.2 | 0.00 | 1.65 | 0.16 | 52 | 996.6 |
| 20260506135504 | 68 | 194 | 2.6 | 8.7 | 0.00 | 1.65 | 0.16 | 51 | 996.5 |
| 20260506135004 | 69 | 178 | 1.7 | 7.0 | 0.00 | 1.65 | 0.16 | 51 | 996.5 |
| 20260506134504 | 69 | 204 | 1.7 | 7.0 | 0.00 | 1.65 | 0.16 | 50 | 996.4 |
| 20260506134004 | 69 | 207 | 3.5 | 6.1 | 0.00 | 1.65 | 0.16 | 50 | 996.6 |
| 20260506133503 | 69 | 183 | 3.5 | 9.6 | 0.00 | 1.65 | 0.16 | 50 | 996.7 |
| 20260506133004 | 69 | 179 | 1.7 | 9.6 | 0.00 | 1.65 | 0.16 | 51 | 996.7 |
| 20260506132005 | 67 | 193 | 2.6 | 7.0 | 0.00 | 1.65 | 0.16 | 54 | 996.7 |
| 20260506131504 | 67 | 141 | 3.5 | 6.1 | 0.00 | 1.65 | 0.16 | 54 | 996.8 |
| 20260506131004 | 67 | 217 | 1.7 | 4.3 | 0.00 | 1.65 | 0.16 | 53 | 996.7 |
| 20260506130004 | 68 | 228 | 3.5 | 7.0 | 0.00 | 1.65 | 0.16 | 52 | 997.0 |
| 20260506125504 | 68 | 223 | 1.7 | 6.1 | 0.00 | 1.65 | 0.16 | 51 | 996.7 |
| 20260506125003 | 69 | 193 | 1.7 | 6.1 | 0.00 | 1.65 | 0.16 | 52 | 996.6 |
| 20260506124004 | 68 | 184 | 1.7 | 4.3 | 0.00 | 1.65 | 0.16 | 51 | 996.9 |
| 20260506123003 | 68 | 234 | 2.6 | 7.0 | 0.00 | 1.65 | 0.16 | 51 | 996.7 |
| 20260506122504 | 67 | 222 | 1.7 | 7.0 | 0.00 | 1.65 | 0.16 | 52 | 997.1 |
| 20260506121504 | 67 | 186 | 2.6 | 6.1 | 0.00 | 1.65 | 0.16 | 52 | 996.7 |
| 20260506121003 | 67 | 199 | 2.6 | 6.1 | 0.00 | 1.65 | 0.16 | 52 | 996.9 |
| 20260506120504 | 68 | 223 | 1.7 | 4.3 | 0.00 | 1.65 | 0.16 | 53 | 997.2 |
| 20260506120004 | 68 | 213 | 1.7 | 7.0 | 0.00 | 1.65 | 0.16 | 53 | 996.8 |
| 20260506115504 | 67 | 220 | 3.5 | 7.0 | 0.00 | 1.65 | 0.16 | 53 | 996.9 |
| 20260506115004 | 66 | 207 | 0.9 | 6.1 | 0.00 | 1.65 | 0.16 | 55 | 997.0 |
| 20260506114503 | 66 | 169 | 3.5 | 6.1 | 0.00 | 1.65 | 0.16 | 54 | 997.1 |
| 20260506114003 | 65 | 196 | 3.5 | 7.0 | 0.00 | 1.65 | 0.16 | 52 | 997.0 |
| 20260506113504 | 66 | 192 | 4.3 | 7.0 | 0.00 | 1.65 | 0.16 | 52 | 997.2 |
| 20260506113004 | 67 | 173 | 3.5 | 6.1 | 0.00 | 1.65 | 0.16 | 54 | 997.3 |
| 20260506112504 | 66 | 265 | 1.7 | 6.1 | 0.00 | 1.65 | 0.16 | 53 | 997.0 |
| 20260506112004 | 66 | 239 | 1.7 | 7.0 | 0.00 | 1.65 | 0.16 | 55 | 997.0 |
| 20260506111504 | 66 | 193 | 3.5 | 7.0 | 0.00 | 1.65 | 0.16 | 54 | 997.1 |
| 20260506111004 | 67 | 183 | 2.6 | 6.1 | 0.00 | 1.65 | 0.16 | 56 | 997.2 |
| 20260506110504 | 66 | 168 | 3.5 | 6.1 | 0.05 | 1.65 | 0.16 | 55 | 997.3 |
| 20260506110004 | 66 | 198 | 3.5 | 8.7 | 0.05 | 1.65 | 0.16 | 54 | 997.3 |
| 20260506105504 | 66 | 203 | 1.7 | 8.7 | 0.05 | 1.65 | 0.16 | 55 | 997.2 |
| 20260506105003 | 67 | 179 | 5.2 | 8.7 | 0.05 | 1.65 | 0.16 | 54 | 997.3 |
| 20260506104004 | 66 | 185 | 3.5 | 7.8 | 0.05 | 1.65 | 0.16 | 56 | 997.1 |
| 20260506103504 | 66 | 186 | 1.7 | 7.8 | 0.05 | 1.65 | 0.16 | 58 | 997.3 |
| 20260506103004 | 65 | 197 | 3.5 | 7.0 | 0.05 | 1.65 | 0.16 | 60 | 997.3 |
| 20260506102504 | 65 | 195 | 2.6 | 7.0 | 0.05 | 1.65 | 0.16 | 60 | 997.3 |
| 20260506102004 | 65 | 213 | 1.7 | 5.2 | 0.05 | 1.65 | 0.16 | 63 | 997.4 |
| 20260506101503 | 63 | 209 | 2.6 | 6.1 | 0.05 | 1.65 | 0.16 | 70 | 997.3 |
| 20260506101004 | 62 | 189 | 3.5 | 6.1 | 0.05 | 1.65 | 0.16 | 67 | 997.3 |
| 20260506100503 | 63 | 181 | 3.5 | 7.0 | 0.00 | 1.59 | 0.11 | 66 | 997.4 |
| 20260506100004 | 63 | 196 | 3.5 | 7.0 | 0.00 | 1.59 | 0.11 | 66 | 997.6 |
| 20260506095504 | 63 | 198 | 5.2 | 9.6 | 0.00 | 1.59 | 0.11 | 68 | 997.5 |
| 20260506095004 | 63 | 172 | 5.2 | 9.6 | 0.00 | 1.59 | 0.11 | 67 | 997.3 |
| 20260506094503 | 63 | 167 | 3.5 | 7.0 | 0.00 | 1.59 | 0.11 | 66 | 997.4 |
| 20260506094003 | 64 | 183 | 3.5 | 6.1 | 0.00 | 1.59 | 0.11 | 64 | 997.3 |
| 20260506093503 | 63 | 179 | 1.7 | 7.0 | 0.00 | 1.59 | 0.11 | 70 | 997.5 |
| 20260506092504 | 63 | 193 | 3.5 | 7.0 | 0.00 | 1.59 | 0.11 | 68 | 997.3 |
| 20260506092003 | 63 | 189 | 2.6 | 7.0 | 0.00 | 1.59 | 0.11 | 68 | 997.4 |
| 20260506091503 | 63 | 196 | 5.2 | 8.7 | 0.00 | 1.59 | 0.11 | 68 | 997.3 |
| 20260506091004 | 63 | 211 | 3.5 | 8.7 | 0.00 | 1.59 | 0.11 | 68 | 997.2 |
| 20260506090004 | 61 | 181 | 1.7 | 6.1 | 0.00 | 1.59 | 0.11 | 75 | 997.2 |
| 20260506085503 | 61 | 190 | 1.7 | 3.5 | 0.00 | 1.59 | 0.11 | 76 | 997.2 |
| 20260506085003 | 60 | 172 | 1.7 | 3.5 | 0.00 | 1.59 | 0.11 | 76 | 997.2 |
| 20260506084504 | 60 | 172 | 1.7 | 4.3 | 0.00 | 1.59 | 0.11 | 76 | 997.2 |
| 20260506084003 | 60 | 191 | 0.0 | 4.3 | 0.00 | 1.59 | 0.11 | 75 | 997.2 |
| 20260506083004 | 60 | 185 | 2.6 | 5.2 | 0.00 | 1.59 | 0.11 | 79 | 997.3 |
| 20260506082503 | 60 | 199 | 2.6 | 6.1 | 0.00 | 1.59 | 0.11 | 81 | 996.9 |
| 20260506082004 | 58 | 213 | 1.7 | 6.1 | 0.00 | 1.59 | 0.11 | 80 | 997.1 |
| 20260506081504 | 58 | 196 | 2.6 | 4.3 | 0.00 | 1.59 | 0.11 | 80 | 997.2 |
| 20260506081003 | 58 | 191 | 2.6 | 3.5 | 0.00 | 1.59 | 0.11 | 80 | 997.0 |
| 20260506080504 | 59 | 190 | 0.9 | 2.6 | 0.00 | 1.59 | 0.11 | 80 | 997.1 |
| 20260506073503 | 58 | 191 | 1.7 | 5.2 | 0.00 | 1.59 | 0.11 | 83 | 997.0 |
| 20260506073003 | 58 | 190 | 1.7 | 5.2 | 0.00 | 1.59 | 0.11 | 84 | 997.0 |
| 20260506072503 | 58 | 184 | 2.6 | 7.0 | 0.00 | 1.59 | 0.11 | 85 | 996.9 |
| 20260506072004 | 58 | 181 | 0.9 | 7.0 | 0.00 | 1.59 | 0.11 | 87 | 997.1 |
| 20260506071504 | 58 | 197 | 3.5 | 4.3 | 0.00 | 1.59 | 0.11 | 90 | 996.9 |
| 20260506071004 | 57 | 201 | 1.7 | 4.3 | 0.00 | 1.59 | 0.11 | 91 | 997.0 |